When you browse on this site, cookies collect data to enhance your experience and personalize the content and advertising you see.
Visit our Privacy Policy to learn more. By continuing to use the site, you agree to this use of cookies and data.
  • In Hungary
  • List of Countries
  • For 7 days
  • Water Temperature
  • Satellite Maps
  • Weather Map
  • News
  • Weather Widgets
  • user-avatar
    Login

    Hourly Weather Stroganovka

    Today, 24 July, Wednesday

    Time Temperature Precipitation Wind Pressure Humidity
    00:00 +21°C° 0.2 mm 1 mps 726 mmHg 77%
    01:00 +20°C° 0.2 mm 1 mps 726 mmHg 79%
    02:00 +20°C° 0.2 mm 1 mps 726 mmHg 82%
    03:00 +20°C° 0.1 mm 1 mps 726 mmHg 82%
    04:00 +20°C° 0.1 mm 1 mps 725 mmHg 81%
    05:00 +20°C° 0.1 mm 1 mps 725 mmHg 81%
    06:00 +21°C° 0.2 mm 1 mps 726 mmHg 76%
    07:00 +23°C° 0.2 mm 2 mps 726 mmHg 72%
    08:00 +24°C° 0.2 mm 2 mps 726 mmHg 68%
    09:00 +24°C° 0.9 mm 2 mps 726 mmHg 67%
    10:00 +25°C° 0.9 mm 3 mps 726 mmHg 65%
    11:00 +25°C° 0.9 mm 3 mps 726 mmHg 64%
    12:00 +26°C° 1 mm 2 mps 726 mmHg 61%
    13:00 +26°C° 1 mm 2 mps 726 mmHg 59%
    14:00 +27°C° 1 mm 2 mps 726 mmHg 56%
    15:00 +26°C° 1 mm 2 mps 726 mmHg 59%
    16:00 +26°C° 1 mm 2 mps 726 mmHg 61%
    17:00 +25°C° 1 mm 1 mps 726 mmHg 64%
    18:00 +24°C° 0.1 mm 1 mps 726 mmHg 65%
    19:00 +23°C° 0.1 mm 1 mps 726 mmHg 67%
    20:00 +22°C° 0.1 mm 1 mps 726 mmHg 69%
    21:00 +21°C° 0 mm 1 mps 727 mmHg 70%
    22:00 +21°C° 0 mm 1 mps 727 mmHg 71%
    23:00 +20°C° 0 mm 1 mps 727 mmHg 72%

    Tomorrow, 25 July, Thursday

    Time Temperature Precipitation Wind Pressure Humidity
    00:00 +20°C° 0 mm 1 mps 727 mmHg 72%
    01:00 +19°C° 0 mm 1 mps 727 mmHg 73%
    02:00 +19°C° 0 mm 1 mps 726 mmHg 74%
    03:00 +19°C° 0 mm 1 mps 727 mmHg 75%
    04:00 +19°C° 0 mm 1 mps 727 mmHg 75%
    05:00 +19°C° 0 mm 1 mps 727 mmHg 76%
    06:00 +20°C° 0 mm 1 mps 727 mmHg 71%
    07:00 +21°C° 0 mm 2 mps 727 mmHg 66%
    08:00 +24°C° 0 mm 2 mps 728 mmHg 62%
    09:00 +25°C° 0 mm 3 mps 728 mmHg 57%
    10:00 +26°C° 0 mm 3 mps 728 mmHg 52%
    11:00 +27°C° 0 mm 4 mps 729 mmHg 47%
    12:00 +27°C° 0.1 mm 4 mps 729 mmHg 47%
    13:00 +28°C° 0.1 mm 5 mps 729 mmHg 47%
    14:00 +28°C° 0.1 mm 5 mps 728 mmHg 46%
    15:00 +27°C° 0 mm 5 mps 728 mmHg 48%
    16:00 +27°C° 0 mm 5 mps 728 mmHg 50%
    17:00 +26°C° 0 mm 5 mps 728 mmHg 52%
    18:00 +23°C° 0 mm 4 mps 728 mmHg 59%
    19:00 +22°C° 0 mm 4 mps 728 mmHg 66%
    20:00 +20°C° 0 mm 3 mps 728 mmHg 73%
    21:00 +19°C° 0 mm 3 mps 728 mmHg 75%
    22:00 +19°C° 0 mm 3 mps 728 mmHg 76%
    23:00 +19°C° 0 mm 3 mps 728 mmHg 78%

    Day after tomorrow, 26 July, Friday

    Time Temperature Precipitation Wind Pressure Humidity
    00:00 +18°C° 0 mm 3 mps 728 mmHg 78%
    01:00 +18°C° 0 mm 2 mps 728 mmHg 79%
    02:00 +18°C° 0 mm 2 mps 728 mmHg 80%
    03:00 +18°C° 0 mm 2 mps 728 mmHg 80%
    04:00 +18°C° 0 mm 2 mps 728 mmHg 80%
    05:00 +18°C° 0 mm 2 mps 728 mmHg 80%
    06:00 +20°C° 0 mm 2 mps 728 mmHg 71%
    07:00 +23°C° 0 mm 2 mps 728 mmHg 62%
    08:00 +25°C° 0 mm 2 mps 728 mmHg 53%
    09:00 +26°C° 0 mm 2 mps 728 mmHg 48%
    10:00 +27°C° 0 mm 2 mps 729 mmHg 43%
    11:00 +28°C° 0 mm 3 mps 729 mmHg 39%
    12:00 +28°C° 0 mm 3 mps 729 mmHg 38%
    13:00 +29°C° 0 mm 3 mps 728 mmHg 37%
    14:00 +29°C° 0 mm 4 mps 728 mmHg 36%
    15:00 +28°C° 0 mm 4 mps 728 mmHg 39%
    16:00 +28°C° 0 mm 4 mps 728 mmHg 42%
    17:00 +27°C° 0 mm 4 mps 727 mmHg 45%
    18:00 +25°C° 0 mm 3 mps 727 mmHg 53%
    19:00 +23°C° 0 mm 2 mps 727 mmHg 61%
    20:00 +20°C° 0 mm 2 mps 727 mmHg 70%
    21:00 +20°C° 0 mm 2 mps 727 mmHg 70%
    22:00 +19°C° 0 mm 2 mps 727 mmHg 71%
    23:00 +19°C° 0 mm 2 mps 727 mmHg 72%

    27 July, Saturday

    Time Temperature Precipitation Wind Pressure Humidity
    00:00 +20°C° 0 mm 1 mps 726 mmHg 69%
    01:00 +20°C° 0 mm 1 mps 726 mmHg 66%
    02:00 +19°C° 0 mm 1 mps 726 mmHg 63%
    03:00 +19°C° 0 mm 1 mps 725 mmHg 62%
    04:00 +20°C° 0 mm 1 mps 725 mmHg 61%
    05:00 +20°C° 0 mm 1 mps 725 mmHg 60%
    06:00 +22°C° 0 mm 1 mps 725 mmHg 55%
    07:00 +24°C° 0 mm 1 mps 725 mmHg 49%
    08:00 +26°C° 0 mm 1 mps 726 mmHg 43%
    09:00 +27°C° 0 mm 1 mps 726 mmHg 40%
    10:00 +29°C° 0 mm 2 mps 726 mmHg 38%
    11:00 +30°C° 0 mm 2 mps 726 mmHg 35%
    12:00 +30°C° 0 mm 3 mps 726 mmHg 35%
    13:00 +30°C° 0 mm 3 mps 726 mmHg 36%
    14:00 +30°C° 0 mm 4 mps 725 mmHg 37%
    15:00 +29°C° 0 mm 3 mps 725 mmHg 40%
    16:00 +28°C° 0 mm 3 mps 725 mmHg 43%
    17:00 +27°C° 0 mm 3 mps 724 mmHg 46%
    18:00 +25°C° 0 mm 2 mps 724 mmHg 55%
    19:00 +23°C° 0 mm 2 mps 724 mmHg 63%
    20:00 +22°C° 0 mm 1 mps 724 mmHg 71%
    21:00 +21°C° 0 mm 1 mps 724 mmHg 72%
    22:00 +21°C° 0 mm 1 mps 723 mmHg 73%
    23:00 +18°C° 0 mm 0 mps 723 mmHg 74%

    28 July, Sunday

    Time Temperature Precipitation Wind Pressure Humidity
    00:00 +18°C° 0 mm 0 mps 723 mmHg 74%
    01:00 +20°C° 0 mm 1 mps 723 mmHg 73%
    02:00 +20°C° 0 mm 1 mps 723 mmHg 73%
    03:00 +20°C° 0 mm 1 mps 722 mmHg 72%
    04:00 +20°C° 0 mm 1 mps 722 mmHg 72%
    05:00 +18°C° 0 mm 0 mps 722 mmHg 71%
    06:00 +22°C° 0 mm 1 mps 723 mmHg 63%
    07:00 +24°C° 0 mm 1 mps 723 mmHg 55%
    08:00 +26°C° 0 mm 1 mps 723 mmHg 47%
    09:00 +28°C° 0 mm 1 mps 723 mmHg 43%
    10:00 +29°C° 0 mm 1 mps 723 mmHg 39%
    11:00 +31°C° 0 mm 1 mps 723 mmHg 36%
    12:00 +30°C° 0 mm 2 mps 723 mmHg 37%
    13:00 +30°C° 0 mm 3 mps 723 mmHg 37%
    14:00 +30°C° 0 mm 3 mps 723 mmHg 38%
    15:00 +29°C° 0 mm 4 mps 723 mmHg 43%
    16:00 +28°C° 0 mm 4 mps 722 mmHg 47%
    17:00 +27°C° 0 mm 4 mps 722 mmHg 51%
    18:00 +25°C° 0 mm 3 mps 722 mmHg 57%
    19:00 +24°C° 0 mm 2 mps 722 mmHg 62%
    20:00 +22°C° 0 mm 1 mps 722 mmHg 68%
    21:00 +22°C° 0 mm 1 mps 722 mmHg 69%
    22:00 +22°C° 0 mm 1 mps 722 mmHg 70%
    23:00 +21°C° 0 mm 1 mps 722 mmHg 71%

    29 July, Monday

    Time Temperature Precipitation Wind Pressure Humidity
    00:00 +21°C° 0 mm 1 mps 721 mmHg 70%
    01:00 +21°C° 0 mm 1 mps 721 mmHg 70%
    02:00 +21°C° 0 mm 1 mps 721 mmHg 69%
    03:00 +20°C° 0 mm 1 mps 721 mmHg 71%
    04:00 +20°C° 0 mm 1 mps 721 mmHg 72%
    05:00 +20°C° 0 mm 1 mps 721 mmHg 74%
    06:00 +22°C° 0 mm 1 mps 721 mmHg 67%
    07:00 +24°C° 0 mm 1 mps 721 mmHg 59%
    08:00 +26°C° 0 mm 1 mps 721 mmHg 52%
    09:00 +27°C° 0 mm 2 mps 722 mmHg 48%
    10:00 +28°C° 0 mm 3 mps 722 mmHg 43%
    11:00 +29°C° 0 mm 3 mps 722 mmHg 39%
    12:00 +29°C° 0 mm 4 mps 722 mmHg 40%
    13:00 +29°C° 0 mm 4 mps 722 mmHg 42%
    14:00 +29°C° 0 mm 5 mps 722 mmHg 44%
    15:00 +28°C° 0 mm 5 mps 722 mmHg 48%
    16:00 +28°C° 0 mm 4 mps 721 mmHg 52%
    17:00 +27°C° 0 mm 4 mps 721 mmHg 56%
    18:00 +25°C° 0.1 mm 3 mps 722 mmHg 63%
    19:00 +24°C° 0.1 mm 3 mps 722 mmHg 71%
    20:00 +21°C° 0.1 mm 2 mps 722 mmHg 79%
    21:00 +20°C° 0 mm 2 mps 722 mmHg 82%
    22:00 +20°C° 0 mm 2 mps 722 mmHg 85%
    23:00 +19°C° 0 mm 2 mps 722 mmHg 88%
    Show more